Location: Miami
(25.6830°N, 80.1700°W)
Time: 13:57:28
(UTC-04:00)

Hubble Space Telescope - Visible Passes

Search period start: 25 February 2018 00:00
Search period end: 07 March 2018 00:00
Orbit: 537 x 541 km, 28.5° (Epoch: 24 February)

Date Brightness Start Highest point End Pass type
(mag) Time Alt. Az. Time Alt. Az. Time Alt. Az.
25 Feb 1.8 05:53:32 43° NE 05:53:32 43° NE 05:56:35 10° E visible
26 Feb 2.3 05:43:51 34° ENE 05:43:51 34° ENE 05:46:23 10° E visible
26 Feb 0.8 07:19:30 10° WNW 07:23:38 85° SSW 07:27:47 10° ESE visible
27 Feb 2.8 05:34:10 27° ENE 05:34:10 27° ENE 05:36:10 10° E visible
27 Feb 0.8 07:09:32 12° W 07:13:22 71° SSW 07:17:29 10° ESE visible
28 Feb 3.3 05:24:32 21° E 05:24:32 21° E 05:25:58 10° E visible
28 Feb 1.0 06:59:54 16° W 07:03:05 57° SSW 07:07:09 10° ESE visible
01 Mar 3.7 05:14:57 15° E 05:14:57 15° E 05:15:45 10° E visible
01 Mar 1.3 06:50:18 20° W 06:52:48 45° SSW 06:56:45 10° SE visible
02 Mar 4.0 05:05:24 11° E 05:05:24 11° E 05:05:32 10° E visible
02 Mar 1.6 06:40:46 24° WSW 06:42:30 35° SSW 06:46:17 10° SE visible
03 Mar 1.9 06:31:18 25° SW 06:32:10 28° SSW 06:35:43 10° SE visible
04 Mar 2.3 06:21:54 21° SSW 06:21:54 21° SSW 06:25:01 10° SSE visible
05 Mar 2.9 06:12:32 15° S 06:12:32 15° S 06:14:08 10° SSE visible
06 Mar 3.2 21:21:34 10° SW 21:22:31 15° SSW 21:22:31 15° SSW visible
